| time (UTC) | temp C | wind direction | speed KPH | gust KPH | rain 1hr cm | rain 24hr cm | rain mn cm | humidity % | barometer mb |
| 20260510093128 | 11 | 298 | 0.0 | 1.6 | 0.00 | 0.00 | 0.00 | 50 | 1013.5 |
| 20260510092622 | 11 | 298 | 0.0 | 1.6 | 0.00 | 0.00 | 0.00 | 50 | 1013.4 |
| 20260510092350 | 11 | 298 | 0.0 | 0.0 | 0.00 | 0.00 | 0.00 | 50 | 1013.4 |
| 20260510091610 | 11 | 298 | 0.0 | 0.0 | 0.00 | 0.00 | 0.00 | 50 | 1013.5 |
| 20260510091111 | 11 | 298 | 0.0 | 0.0 | 0.00 | 0.00 | 0.00 | 49 | 1013.5 |
| 20260510090556 | 11 | 298 | 0.0 | 0.0 | 0.00 | 0.00 | 0.00 | 48 | 1013.5 |
| 20260510090049 | 11 | 298 | 0.0 | 0.0 | 0.00 | 0.00 | 0.00 | 48 | 1013.5 |
| 20260510085547 | 12 | 298 | 0.0 | 0.0 | 0.00 | 0.00 | 0.00 | 48 | 1013.6 |
| 20260510085043 | 12 | 298 | 0.0 | 0.0 | 0.00 | 0.00 | 0.00 | 47 | 1013.6 |
| 20260510085039 | 12 | 298 | 0.0 | 0.0 | 0.00 | 0.00 | 0.00 | 48 | 1013.6 |
| 20260510084028 | 12 | 298 | 0.0 | 0.0 | 0.00 | 0.00 | 0.00 | 46 | 1013.5 |
| 20260510083520 | 12 | 298 | 0.0 | 0.0 | 0.00 | 0.00 | 0.00 | 46 | 1013.5 |
| 20260510083017 | 13 | 298 | 0.0 | 0.0 | 0.00 | 0.00 | 0.00 | 45 | 1013.5 |
| 20260510082514 | 13 | 298 | 0.0 | 0.0 | 0.00 | 0.00 | 0.00 | 45 | 1013.5 |
| 20260510082008 | 13 | 298 | 0.0 | 0.0 | 0.00 | 0.00 | 0.00 | 45 | 1013.6 |
| 20260510081502 | 13 | 298 | 0.0 | 0.0 | 0.00 | 0.00 | 0.00 | 45 | 1013.6 |
| 20260510080949 | 13 | 298 | 0.0 | 0.0 | 0.00 | 0.00 | 0.00 | 44 | 1013.6 |
| 20260510080443 | 13 | 298 | 0.0 | 0.0 | 0.00 | 0.00 | 0.00 | 44 | 1013.6 |
| 20260510075940 | 13 | 298 | 0.0 | 0.0 | 0.00 | 0.00 | 0.00 | 43 | 1013.6 |
| 20260510075434 | 13 | 298 | 0.0 | 0.0 | 0.00 | 0.00 | 0.00 | 43 | 1013.8 |
| 20260510074929 | 13 | 298 | 0.0 | 0.0 | 0.00 | 0.00 | 0.00 | 42 | 1013.6 |
| 20260510074418 | 13 | 298 | 0.0 | 0.0 | 0.00 | 0.00 | 0.00 | 42 | 1013.8 |
| 20260510074201 | 13 | 298 | 0.0 | 0.0 | 0.00 | 0.00 | 0.00 | 42 | 1013.6 |
| 20260510073410 | 14 | 298 | 0.0 | 0.0 | 0.00 | 0.00 | 0.00 | 41 | 1013.6 |
| 20260510073136 | 14 | 298 | 0.0 | 0.0 | 0.00 | 0.00 | 0.00 | 41 | 1013.6 |
| 20260510072358 | 14 | 298 | 0.0 | 0.0 | 0.00 | 0.00 | 0.00 | 41 | 1013.6 |
| 20260510071851 | 14 | 298 | 0.0 | 1.6 | 0.00 | 0.00 | 0.00 | 40 | 1013.8 |
| 20260510071620 | 15 | 298 | 0.0 | 1.6 | 0.00 | 0.00 | 0.00 | 40 | 1013.8 |
| 20260510070842 | 15 | 298 | 0.0 | 1.6 | 0.00 | 0.00 | 0.00 | 40 | 1013.8 |
| 20260510070607 | 15 | 298 | 0.0 | 1.6 | 0.00 | 0.00 | 0.00 | 40 | 1013.8 |
| 20260510065829 | 15 | 298 | 0.0 | 3.2 | 0.00 | 0.00 | 0.00 | 39 | 1013.8 |
| 20260510065325 | 15 | 298 | 0.0 | 4.8 | 0.00 | 0.00 | 0.00 | 39 | 1013.8 |
| 20260510064815 | 15 | 298 | 1.6 | 4.8 | 0.00 | 0.00 | 0.00 | 39 | 1013.6 |
| 20260510064314 | 15 | 298 | 1.6 | 4.8 | 0.00 | 0.00 | 0.00 | 39 | 1013.6 |
| 20260510064049 | 15 | 298 | 3.2 | 6.4 | 0.00 | 0.00 | 0.00 | 39 | 1013.8 |
| 20260510063532 | 16 | 299 | 3.2 | 6.4 | 0.00 | 0.00 | 0.00 | 39 | 1013.6 |
| 20260510062811 | 16 | 293 | 3.2 | 6.4 | 0.00 | 0.00 | 0.00 | 39 | 1013.6 |
| 20260510062306 | 16 | 286 | 3.2 | 6.4 | 0.00 | 0.00 | 0.00 | 39 | 1013.6 |
| 20260510062027 | 16 | 300 | 3.2 | 6.4 | 0.00 | 0.00 | 0.00 | 39 | 1013.6 |
| 20260510061523 | 16 | 308 | 3.2 | 6.4 | 0.00 | 0.00 | 0.00 | 39 | 1013.6 |
| 20260510061310 | 16 | 308 | 3.2 | 6.4 | 0.00 | 0.00 | 0.00 | 39 | 1013.6 |
| 20260510060801 | 16 | 306 | 3.2 | 6.4 | 0.00 | 0.00 | 0.00 | 38 | 1013.8 |
| 20260510060528 | 16 | 302 | 3.2 | 6.4 | 0.00 | 0.00 | 0.00 | 38 | 1013.8 |
| 20260510060308 | 16 | 302 | 3.2 | 6.4 | 0.00 | 0.00 | 0.00 | 38 | 1013.8 |
| 20260510060306 | 16 | 300 | 3.2 | 8.0 | 0.00 | 0.00 | 0.00 | 38 | 1013.8 |
| 20260510055807 | 16 | 300 | 3.2 | 8.0 | 0.00 | 0.00 | 0.00 | 38 | 1013.8 |
| 20260510055306 | 16 | 310 | 3.2 | 8.0 | 0.00 | 0.00 | 0.00 | 37 | 1013.8 |
| 20260510054815 | 16 | 325 | 3.2 | 8.0 | 0.00 | 0.00 | 0.00 | 37 | 1013.8 |
| 20260510054312 | 17 | 307 | 3.2 | 6.4 | 0.00 | 0.00 | 0.00 | 37 | 1013.8 |
| 20260510054044 | 17 | 306 | 3.2 | 6.4 | 0.00 | 0.00 | 0.00 | 36 | 1013.8 |
| 20260510053302 | 17 | 306 | 3.2 | 9.7 | 0.00 | 0.00 | 0.00 | 36 | 1013.8 |
| 20260510052811 | 17 | 296 | 4.8 | 9.7 | 0.00 | 0.00 | 0.00 | 35 | 1013.8 |
| 20260510052524 | 17 | 305 | 4.8 | 11.3 | 0.00 | 0.00 | 0.00 | 35 | 1013.9 |
| 20260510052307 | 17 | 305 | 4.8 | 11.3 | 0.00 | 0.00 | 0.00 | 35 | 1013.9 |
| 20260510051800 | 18 | 290 | 4.8 | 11.3 | 0.00 | 0.00 | 0.00 | 34 | 1013.8 |
| 20260510051308 | 18 | 327 | 3.2 | 6.4 | 0.00 | 0.00 | 0.00 | 35 | 1013.8 |
| 20260510051301 | 18 | 324 | 3.2 | 6.4 | 0.00 | 0.00 | 0.00 | 34 | 1013.8 |
| 20260510050253 | 18 | 347 | 3.2 | 8.0 | 0.00 | 0.00 | 0.00 | 35 | 1013.6 |
| 20260510045747 | 18 | 355 | 3.2 | 8.0 | 0.00 | 0.00 | 0.00 | 35 | 1013.8 |
| 20260510045523 | 19 | 346 | 3.2 | 8.0 | 0.00 | 0.00 | 0.00 | 34 | 1013.6 |
| 20260510044736 | 19 | 336 | 3.2 | 8.0 | 0.00 | 0.00 | 0.00 | 34 | 1013.6 |
| 20260510044230 | 19 | 355 | 3.2 | 9.7 | 0.00 | 0.00 | 0.00 | 34 | 1013.6 |
| 20260510044015 | 20 | 350 | 4.8 | 12.9 | 0.00 | 0.00 | 0.00 | 33 | 1013.5 |
| 20260510043217 | 20 | 355 | 4.8 | 12.9 | 0.00 | 0.00 | 0.00 | 32 | 1013.4 |
| 20260510042743 | 20 | 5 | 4.8 | 12.9 | 0.00 | 0.00 | 0.00 | 31 | 1013.3 |
| 20260510042727 | 20 | 348 | 4.8 | 12.9 | 0.00 | 0.00 | 0.00 | 32 | 1013.4 |
| 20260510041701 | 20 | 355 | 4.8 | 12.9 | 0.00 | 0.00 | 0.00 | 31 | 1013.3 |
| 20260510041153 | 20 | 346 | 4.8 | 12.9 | 0.00 | 0.00 | 0.00 | 30 | 1013.2 |
| 20260510040928 | 20 | 11 | 4.8 | 16.1 | 0.00 | 0.00 | 0.00 | 29 | 1013.2 |
| 20260510040142 | 20 | 350 | 4.8 | 16.1 | 0.00 | 0.00 | 0.00 | 27 | 1013.1 |
| 20260510035917 | 21 | 346 | 4.8 | 20.9 | 0.00 | 0.00 | 0.00 | 26 | 1013.1 |
| 20260510035129 | 21 | 355 | 4.8 | 20.9 | 0.00 | 0.00 | 0.00 | 25 | 1013.0 |
| 20260510034623 | 21 | 355 | 4.8 | 12.9 | 0.00 | 0.00 | 0.00 | 24 | 1012.9 |
| 20260510034117 | 21 | 355 | 4.8 | 12.9 | 0.00 | 0.00 | 0.00 | 23 | 1012.8 |
| 20260510033612 | 21 | 355 | 4.8 | 12.9 | 0.00 | 0.00 | 0.00 | 23 | 1012.8 |
| 20260510033108 | 21 | 323 | 3.2 | 12.9 | 0.00 | 0.00 | 0.00 | 22 | 1012.8 |
| 20260510032559 | 22 | 355 | 3.2 | 12.9 | 0.00 | 0.00 | 0.00 | 22 | 1012.7 |
| 20260510032336 | 22 | 5 | 3.2 | 8.0 | 0.00 | 0.00 | 0.00 | 22 | 1012.7 |
| 20260510031549 | 22 | 355 | 3.2 | 8.0 | 0.00 | 0.00 | 0.00 | 22 | 1012.7 |
| 20260510031336 | 22 | 20 | 1.6 | 8.0 | 0.00 | 0.00 | 0.00 | 22 | 1012.6 |
| 20260510030535 | 23 | 13 | 1.6 | 8.0 | 0.00 | 0.00 | 0.00 | 22 | 1012.4 |
| 20260510030032 | 23 | 31 | 1.6 | 14.5 | 0.00 | 0.00 | 0.00 | 22 | 1012.4 |
| 20260510025822 | 23 | 33 | 3.2 | 14.5 | 0.00 | 0.00 | 0.00 | 22 | 1012.4 |
| 20260510025018 | 24 | 44 | 1.6 | 9.7 | 0.00 | 0.00 | 0.00 | 21 | 1012.4 |
| 20260510024511 | 24 | 33 | 1.6 | 9.7 | 0.00 | 0.00 | 0.00 | 21 | 1012.4 |
| 20260510024008 | 25 | 5 | 3.2 | 8.0 | 0.00 | 0.00 | 0.00 | 21 | 1012.4 |
| 20260510023500 | 25 | 47 | 3.2 | 11.3 | 0.00 | 0.00 | 0.00 | 20 | 1012.3 |
| 20260510022954 | 25 | 30 | 3.2 | 11.3 | 0.00 | 0.00 | 0.00 | 20 | 1012.4 |
| 20260510022447 | 26 | 30 | 3.2 | 8.0 | 0.00 | 0.00 | 0.00 | 20 | 1012.4 |
| 20260510021941 | 26 | 34 | 3.2 | 11.3 | 0.00 | 0.00 | 0.00 | 20 | 1012.6 |
| 20260510021435 | 26 | 13 | 3.2 | 12.9 | 0.00 | 0.00 | 0.00 | 20 | 1012.4 |
| 20260510020929 | 26 | 49 | 4.8 | 12.9 | 0.00 | 0.00 | 0.00 | 20 | 1012.6 |
| 20260510020423 | 26 | 337 | 3.2 | 9.7 | 0.00 | 0.00 | 0.00 | 19 | 1012.4 |
| 20260510015917 | 26 | 43 | 3.2 | 9.7 | 0.00 | 0.00 | 0.00 | 19 | 1012.4 |
| 20260510015412 | 26 | 9 | 4.8 | 11.3 | 0.00 | 0.00 | 0.00 | 18 | 1012.6 |
| 20260510014912 | 26 | 26 | 4.8 | 14.5 | 0.00 | 0.00 | 0.00 | 19 | 1012.6 |
| 20260510014359 | 26 | 23 | 6.4 | 19.3 | 0.00 | 0.00 | 0.00 | 19 | 1012.6 |
| 20260510013854 | 26 | 342 | 6.4 | 19.3 | 0.00 | 0.00 | 0.00 | 18 | 1012.7 |
| 20260510013347 | 26 | 29 | 4.8 | 14.5 | 0.00 | 0.00 | 0.00 | 18 | 1012.8 |
| 20260510012841 | 26 | 355 | 4.8 | 16.1 | 0.00 | 0.00 | 0.00 | 19 | 1012.9 |
| 20260510012412 | 27 | 355 | 6.4 | 16.1 | 0.00 | 0.00 | 0.00 | 18 | 1012.9 |
| 20260510012354 | 26 | 355 | 4.8 | 16.1 | 0.00 | 0.00 | 0.00 | 19 | 1013.0 |
| 20260510011327 | 27 | 9 | 8.0 | 16.1 | 0.00 | 0.00 | 0.00 | 18 | 1012.9 |
| 20260510011102 | 27 | 355 | 6.4 | 16.1 | 0.00 | 0.00 | 0.00 | 18 | 1012.9 |
| 20260510010311 | 27 | 331 | 6.4 | 16.1 | 0.00 | 0.00 | 0.00 | 18 | 1012.8 |
| 20260510005811 | 27 | 349 | 6.4 | 16.1 | 0.00 | 0.00 | 0.00 | 18 | 1012.7 |
| 20260510005311 | 27 | 351 | 3.2 | 16.1 | 0.00 | 0.00 | 0.00 | 17 | 1012.7 |
| 20260510004813 | 27 | 42 | 3.2 | 8.0 | 0.00 | 0.00 | 0.00 | 17 | 1012.8 |
| 20260510004317 | 27 | 0 | 4.8 | 16.1 | 0.00 | 0.00 | 0.00 | 17 | 1012.7 |
| 20260510003814 | 27 | 342 | 4.8 | 16.1 | 0.00 | 0.00 | 0.00 | 17 | 1012.7 |
| 20260510003317 | 27 | 355 | 4.8 | 14.5 | 0.00 | 0.00 | 0.00 | 16 | 1012.7 |
| 20260510002813 | 27 | 350 | 4.8 | 14.5 | 0.00 | 0.00 | 0.00 | 17 | 1012.8 |
| 20260510002548 | 27 | 44 | 4.8 | 17.7 | 0.00 | 0.00 | 0.00 | 17 | 1012.8 |
| 20260510001811 | 27 | 41 | 4.8 | 17.7 | 0.00 | 0.00 | 0.00 | 16 | 1012.8 |
| 20260510001311 | 28 | 60 | 4.8 | 12.9 | 0.00 | 0.00 | 0.00 | 16 | 1012.8 |
| 20260510000811 | 28 | 319 | 4.8 | 12.9 | 0.00 | 0.00 | 0.00 | 17 | 1012.9 |
| 20260510000311 | 27 | 49 | 6.4 | 12.9 | 0.00 | 0.00 | 0.00 | 16 | 1013.1 |
| 20260509235812 | 27 | 342 | 6.4 | 17.7 | 0.00 | 0.00 | 0.00 | 16 | 1013.0 |
| 20260509235311 | 28 | 346 | 4.8 | 17.7 | 0.00 | 0.00 | 0.00 | 15 | 1013.1 |
| 20260509234812 | 28 | 329 | 4.8 | 12.9 | 0.00 | 0.00 | 0.00 | 17 | 1013.3 |
| 20260509234311 | 28 | 36 | 4.8 | 12.9 | 0.00 | 0.00 | 0.00 | 16 | 1013.3 |
| 20260509233810 | 28 | 11 | 4.8 | 12.9 | 0.00 | 0.00 | 0.00 | 16 | 1013.4 |
| 20260509233547 | 28 | 345 | 4.8 | 20.9 | 0.00 | 0.00 | 0.00 | 16 | 1013.4 |
| 20260509232811 | 27 | 25 | 4.8 | 20.9 | 0.00 | 0.00 | 0.00 | 16 | 1013.5 |
| 20260509232310 | 27 | 26 | 4.8 | 17.7 | 0.00 | 0.00 | 0.00 | 15 | 1013.5 |
| 20260509231811 | 27 | 346 | 4.8 | 17.7 | 0.00 | 0.00 | 0.00 | 15 | 1013.6 |
| 20260509231311 | 27 | 342 | 3.2 | 8.0 | 0.00 | 0.00 | 0.00 | 14 | 1013.8 |
| 20260509230811 | 27 | 42 | 4.8 | 8.0 | 0.00 | 0.00 | 0.00 | 13 | 1013.9 |
| 20260509230312 | 27 | 289 | 4.8 | 16.1 | 0.00 | 0.00 | 0.00 | 13 | 1013.8 |
| 20260509225810 | 28 | 50 | 4.8 | 16.1 | 0.00 | 0.00 | 0.00 | 13 | 1013.9 |
| 20260509225533 | 27 | 9 | 4.8 | 17.7 | 0.00 | 0.00 | 0.00 | 14 | 1013.9 |
| 20260509224809 | 27 | 344 | 6.4 | 17.7 | 0.00 | 0.00 | 0.00 | 14 | 1014.0 |
| 20260509224312 | 27 | 5 | 6.4 | 16.1 | 0.00 | 0.00 | 0.00 | 14 | 1014.0 |
| 20260509223816 | 27 | 295 | 6.4 | 14.5 | 0.00 | 0.00 | 0.00 | 15 | 1014.1 |
| 20260509223311 | 27 | 35 | 6.4 | 16.1 | 0.00 | 0.00 | 0.00 | 14 | 1014.2 |
| 20260509222810 | 27 | 331 | 6.4 | 16.1 | 0.00 | 0.00 | 0.00 | 15 | 1014.2 |
| 20260509222530 | 27 | 317 | 6.4 | 17.7 | 0.00 | 0.00 | 0.00 | 15 | 1014.3 |
| 20260509222029 | 27 | 23 | 6.4 | 17.7 | 0.00 | 0.00 | 0.00 | 15 | 1014.4 |
| 20260509221530 | 27 | 348 | 4.8 | 17.7 | 0.00 | 0.00 | 0.00 | 14 | 1014.5 |
| 20260509221038 | 27 | 65 | 3.2 | 17.7 | 0.00 | 0.00 | 0.00 | 16 | 1014.5 |
| 20260509220300 | 26 | 41 | 4.8 | 17.7 | 0.00 | 0.00 | 0.00 | 16 | 1015.1 |
| 20260509215752 | 26 | 36 | 3.2 | 9.7 | 0.00 | 0.00 | 0.00 | 16 | 1014.7 |
| 20260509215244 | 27 | 36 | 3.2 | 12.9 | 0.00 | 0.00 | 0.00 | 17 | 1014.8 |
| 20260509214738 | 26 | 77 | 4.8 | 12.9 | 0.00 | 0.00 | 0.00 | 17 | 1015.0 |
| 20260509214232 | 26 | 92 | 3.2 | 12.9 | 0.00 | 0.00 | 0.00 | 17 | 1015.1 |
| 20260509213726 | 26 | 43 | 1.6 | 9.7 | 0.00 | 0.00 | 0.00 | 18 | 1015.1 |
| 20260509213221 | 26 | 67 | 3.2 | 12.9 | 0.00 | 0.00 | 0.00 | 16 | 1015.2 |
| 20260509212714 | 26 | 329 | 4.8 | 12.9 | 0.00 | 0.00 | 0.00 | 17 | 1015.2 |
| 20260509212208 | 26 | 92 | 4.8 | 9.7 | 0.00 | 0.00 | 0.00 | 18 | 1015.2 |
| 20260509211703 | 26 | 58 | 4.8 | 11.3 | 0.00 | 0.00 | 0.00 | 19 | 1015.3 |
| 20260509211156 | 26 | 0 | 4.8 | 12.9 | 0.00 | 0.00 | 0.00 | 18 | 1015.3 |
| 20260509210650 | 25 | 310 | 4.8 | 12.9 | 0.00 | 0.00 | 0.00 | 18 | 1015.3 |
| 20260509210147 | 25 | 36 | 3.2 | 8.0 | 0.00 | 0.00 | 0.00 | 19 | 1015.5 |
| 20260509205640 | 25 | 251 | 4.8 | 14.5 | 0.00 | 0.00 | 0.00 | 19 | 1015.5 |
| 20260509205131 | 25 | 67 | 6.4 | 14.5 | 0.00 | 0.00 | 0.00 | 21 | 1015.5 |
| 20260509204626 | 25 | 36 | 4.8 | 14.5 | 0.00 | 0.00 | 0.00 | 20 | 1015.6 |
| 20260509204120 | 25 | 64 | 4.8 | 14.5 | 0.00 | 0.00 | 0.00 | 20 | 1015.7 |
| 20260509203614 | 25 | 73 | 4.8 | 9.7 | 0.00 | 0.00 | 0.00 | 21 | 1015.8 |
| 20260509203110 | 25 | 338 | 4.8 | 11.3 | 0.00 | 0.00 | 0.00 | 21 | 1015.8 |
| 20260509202602 | 25 | 54 | 3.2 | 11.3 | 0.00 | 0.00 | 0.00 | 22 | 1015.8 |
| 20260509202056 | 25 | 34 | 3.2 | 16.1 | 0.00 | 0.00 | 0.00 | 23 | 1015.8 |
| 20260509201550 | 24 | 123 | 3.2 | 16.1 | 0.00 | 0.00 | 0.00 | 25 | 1015.9 |
| 20260509201045 | 24 | 74 | 4.8 | 9.7 | 0.00 | 0.00 | 0.00 | 24 | 1015.9 |
| 20260509200538 | 24 | 69 | 4.8 | 14.5 | 0.00 | 0.00 | 0.00 | 24 | 1016.0 |
| 20260509200033 | 23 | 61 | 3.2 | 14.5 | 0.00 | 0.00 | 0.00 | 24 | 1016.0 |
| 20260509195542 | 23 | 69 | 3.2 | 14.5 | 0.00 | 0.00 | 0.00 | 27 | 1016.1 |
| 20260509195020 | 23 | 64 | 4.8 | 14.5 | 0.00 | 0.00 | 0.00 | 26 | 1016.3 |
| 20260509194513 | 23 | 69 | 4.8 | 14.5 | 0.00 | 0.00 | 0.00 | 25 | 1016.3 |
| 20260509194011 | 23 | 67 | 3.2 | 12.9 | 0.00 | 0.00 | 0.00 | 26 | 1016.3 |
| 20260509193501 | 23 | 86 | 4.8 | 14.5 | 0.00 | 0.00 | 0.00 | 26 | 1016.4 |
| 20260509192956 | 23 | 31 | 3.2 | 14.5 | 0.00 | 0.00 | 0.00 | 26 | 1016.5 |
| 20260509192453 | 23 | 69 | 3.2 | 14.5 | 0.00 | 0.00 | 0.00 | 27 | 1016.7 |
| 20260509191953 | 23 | 90 | 4.8 | 14.5 | 0.00 | 0.00 | 0.00 | 27 | 1016.7 |
| 20260509191453 | 22 | 333 | 3.2 | 8.0 | 0.00 | 0.00 | 0.00 | 29 | 1016.7 |
| 20260509191042 | 22 | 49 | 3.2 | 14.5 | 0.00 | 0.00 | 0.00 | 31 | 1016.9 |
| 20260509191029 | 22 | 85 | 3.2 | 9.7 | 0.00 | 0.00 | 0.00 | 28 | 1016.7 |
| 20260509185950 | 22 | 87 | 4.8 | 14.5 | 0.00 | 0.00 | 0.00 | 29 | 1017.0 |
| 20260509185449 | 22 | 117 | 3.2 | 11.3 | 0.00 | 0.00 | 0.00 | 31 | 1017.1 |
| 20260509184956 | 21 | 75 | 3.2 | 8.0 | 0.00 | 0.00 | 0.00 | 33 | 1017.1 |
| 20260509184456 | 21 | 63 | 4.8 | 14.5 | 0.00 | 0.00 | 0.00 | 32 | 1017.3 |
| 20260509184019 | 21 | 63 | 3.2 | 11.3 | 0.00 | 0.00 | 0.00 | 35 | 1017.3 |
| 20260509184015 | 21 | 65 | 4.8 | 14.5 | 0.00 | 0.00 | 0.00 | 32 | 1017.2 |
| 20260509182949 | 21 | 85 | 3.2 | 9.7 | 0.00 | 0.00 | 0.00 | 35 | 1017.3 |
| 20260509182449 | 21 | 115 | 3.2 | 9.7 | 0.00 | 0.00 | 0.00 | 36 | 1017.5 |
| 20260509181953 | 21 | 135 | 1.6 | 9.7 | 0.00 | 0.00 | 0.00 | 32 | 1017.6 |
| 20260509181455 | 20 | 101 | 3.2 | 9.7 | 0.00 | 0.00 | 0.00 | 36 | 1017.6 |
| 20260509181022 | 20 | 122 | 3.2 | 11.3 | 0.00 | 0.00 | 0.00 | 37 | 1017.6 |
| 20260509181017 | 20 | 74 | 3.2 | 9.7 | 0.00 | 0.00 | 0.00 | 37 | 1017.6 |
| 20260509175948 | 19 | 155 | 4.8 | 11.3 | 0.00 | 0.00 | 0.00 | 37 | 1017.6 |
| 20260509175446 | 19 | 175 | 3.2 | 11.3 | 0.00 | 0.00 | 0.00 | 38 | 1017.6 |
| 20260509174946 | 19 | 126 | 4.8 | 14.5 | 0.00 | 0.00 | 0.00 | 39 | 1017.7 |
| 20260509174444 | 18 | 107 | 4.8 | 14.5 | 0.00 | 0.00 | 0.00 | 39 | 1017.7 |
| 20260509174220 | 19 | 198 | 3.2 | 14.5 | 0.00 | 0.00 | 0.00 | 39 | 1017.7 |
| 20260509173440 | 18 | 128 | 4.8 | 14.5 | 0.00 | 0.00 | 0.00 | 41 | 1017.7 |
| 20260509172939 | 18 | 127 | 4.8 | 14.5 | 0.00 | 0.00 | 0.00 | 41 | 1017.8 |
| 20260509172440 | 18 | 213 | 3.2 | 14.5 | 0.00 | 0.00 | 0.00 | 42 | 1017.8 |
| 20260509171941 | 18 | 104 | 4.8 | 12.9 | 0.00 | 0.00 | 0.00 | 44 | 1017.9 |
| 20260509171440 | 18 | 117 | 4.8 | 14.5 | 0.00 | 0.00 | 0.00 | 44 | 1017.9 |
| 20260509170938 | 17 | 109 | 4.8 | 14.5 | 0.00 | 0.00 | 0.00 | 44 | 1017.9 |
| 20260509170659 | 17 | 126 | 3.2 | 11.3 | 0.00 | 0.00 | 0.00 | 45 | 1018.0 |
| 20260509170439 | 17 | 126 | 3.2 | 11.3 | 0.00 | 0.00 | 0.00 | 45 | 1018.0 |
| 20260509165935 | 17 | 115 | 3.2 | 12.9 | 0.00 | 0.00 | 0.00 | 45 | 1018.0 |
| 20260509165431 | 17 | 119 | 3.2 | 12.9 | 0.00 | 0.00 | 0.00 | 45 | 1018.0 |
| 20260509165239 | 16 | 178 | 3.2 | 9.7 | 0.00 | 0.00 | 0.00 | 48 | 1018.2 |
| 20260509165234 | 17 | 96 | 3.2 | 11.3 | 0.00 | 0.00 | 0.00 | 47 | 1018.1 |
| 20260509163931 | 16 | 168 | 3.2 | 12.9 | 0.00 | 0.00 | 0.00 | 49 | 1018.2 |
| 20260509163439 | 16 | 159 | 1.6 | 12.9 | 0.00 | 0.00 | 0.00 | 49 | 1018.2 |
| 20260509162930 | 15 | 169 | 1.6 | 3.2 | 0.00 | 0.00 | 0.00 | 52 | 1018.2 |
| 20260509162430 | 15 | 175 | 1.6 | 11.3 | 0.00 | 0.00 | 0.00 | 52 | 1018.3 |
| 20260509162427 | 15 | 197 | 3.2 | 11.3 | 0.00 | 0.00 | 0.00 | 52 | 1018.3 |
| 20260509161426 | 14 | 111 | 3.2 | 8.0 | 0.00 | 0.00 | 0.00 | 54 | 1018.5 |
| 20260509160918 | 14 | 182 | 3.2 | 8.0 | 0.00 | 0.00 | 0.00 | 53 | 1018.5 |
| 20260509160411 | 14 | 186 | 1.6 | 8.0 | 0.00 | 0.00 | 0.00 | 53 | 1018.5 |
| 20260509155908 | 13 | 148 | 1.6 | 6.4 | 0.00 | 0.00 | 0.00 | 55 | 1018.4 |
| 20260509155359 | 13 | 163 | 1.6 | 6.4 | 0.00 | 0.00 | 0.00 | 55 | 1018.4 |
| 20260509155129 | 13 | 134 | 1.6 | 6.4 | 0.00 | 0.00 | 0.00 | 57 | 1018.4 |
| 20260509154350 | 12 | 151 | 3.2 | 8.0 | 0.00 | 0.00 | 0.00 | 58 | 1018.5 |
| 20260509153842 | 12 | 184 | 3.2 | 8.0 | 0.00 | 0.00 | 0.00 | 59 | 1018.7 |
| 20260509153614 | 12 | 135 | 3.2 | 11.3 | 0.00 | 0.00 | 0.00 | 59 | 1018.7 |
| 20260509153100 | 11 | 184 | 3.2 | 11.3 | 0.00 | 0.00 | 0.00 | 59 | 1018.8 |
| 20260509152323 | 11 | 151 | 3.2 | 8.0 | 0.00 | 0.00 | 0.00 | 61 | 1018.8 |
| 20260509151818 | 11 | 183 | 3.2 | 11.3 | 0.00 | 0.00 | 0.00 | 62 | 1019.0 |
| 20260509151311 | 11 | 151 | 3.2 | 11.3 | 0.00 | 0.00 | 0.00 | 63 | 1018.9 |
| 20260509150808 | 10 | 143 | 3.2 | 11.3 | 0.00 | 0.00 | 0.00 | 63 | 1018.9 |
| 20260509150259 | 10 | 149 | 3.2 | 11.3 | 0.00 | 0.00 | 0.00 | 64 | 1018.8 |
| 20260509145753 | 10 | 179 | 3.2 | 11.3 | 0.00 | 0.00 | 0.00 | 65 | 1018.8 |
| 20260509145247 | 10 | 155 | 1.6 | 11.3 | 0.00 | 0.00 | 0.00 | 66 | 1018.9 |
| 20260509144742 | 9 | 134 | 3.2 | 9.7 | 0.00 | 0.00 | 0.00 | 69 | 1018.7 |
| 20260509144237 | 8 | 138 | 4.8 | 12.9 | 0.00 | 0.00 | 0.00 | 69 | 1018.8 |
| 20260509143729 | 8 | 146 | 4.8 | 11.3 | 0.00 | 0.00 | 0.00 | 70 | 1018.8 |
| 20260509143717 | 8 | 124 | 4.8 | 12.9 | 0.00 | 0.00 | 0.00 | 71 | 1018.8 |
| 20260509143458 | 8 | 124 | 4.8 | 12.9 | 0.00 | 0.00 | 0.00 | 71 | 1018.8 |
| 20260509142717 | 8 | 134 | 4.8 | 12.9 | 0.00 | 0.00 | 0.00 | 72 | 1018.8 |
| 20260509142444 | 7 | 142 | 3.2 | 9.7 | 0.00 | 0.00 | 0.00 | 72 | 1018.8 |
| 20260509141935 | 7 | 137 | 3.2 | 9.7 | 0.00 | 0.00 | 0.00 | 73 | 1018.8 |
| 20260509141159 | 7 | 136 | 3.2 | 12.9 | 0.00 | 0.00 | 0.00 | 74 | 1018.7 |
| 20260509140653 | 6 | 150 | 3.2 | 12.9 | 0.00 | 0.00 | 0.00 | 75 | 1018.7 |
| 20260509140148 | 6 | 125 | 3.2 | 11.3 | 0.00 | 0.00 | 0.00 | 76 | 1018.7 |
| 20260509135641 | 6 | 128 | 3.2 | 11.3 | 0.00 | 0.00 | 0.00 | 77 | 1018.5 |
| 20260509135135 | 5 | 130 | 3.2 | 9.7 | 0.00 | 0.00 | 0.00 | 78 | 1018.5 |
| 20260509134629 | 5 | 130 | 3.2 | 8.0 | 0.00 | 0.00 | 0.00 | 78 | 1018.4 |
| 20260509134122 | 5 | 144 | 3.2 | 8.0 | 0.00 | 0.00 | 0.00 | 78 | 1018.5 |
| 20260509133617 | 5 | 128 | 3.2 | 11.3 | 0.00 | 0.00 | 0.00 | 79 | 1018.3 |
| 20260509133442 | 4 | 134 | 3.2 | 11.3 | 0.00 | 0.00 | 0.00 | 79 | 1018.4 |
| 20260509133438 | 4 | 144 | 4.8 | 11.3 | 0.00 | 0.00 | 0.00 | 80 | 1018.3 |
| 20260509133433 | 5 | 130 | 3.2 | 11.3 | 0.00 | 0.00 | 0.00 | 79 | 1018.3 |
| 20260509131617 | 4 | 144 | 4.8 | 12.9 | 0.00 | 0.00 | 0.00 | 80 | 1018.2 |
| 20260509131115 | 3 | 161 | 4.8 | 12.9 | 0.00 | 0.00 | 0.00 | 80 | 1018.1 |
| 20260509130615 | 3 | 136 | 3.2 | 12.9 | 0.00 | 0.00 | 0.00 | 80 | 1018.1 |
| 20260509130117 | 3 | 158 | 3.2 | 9.7 | 0.00 | 0.00 | 0.00 | 79 | 1018.0 |
| 20260509125613 | 3 | 143 | 3.2 | 9.7 | 0.00 | 0.00 | 0.00 | 79 | 1018.0 |
| 20260509125113 | 3 | 141 | 3.2 | 8.0 | 0.00 | 0.00 | 0.00 | 79 | 1017.9 |
| 20260509124611 | 3 | 171 | 3.2 | 11.3 | 0.00 | 0.00 | 0.00 | 79 | 1017.9 |
| 20260509124112 | 3 | 147 | 3.2 | 11.3 | 0.00 | 0.00 | 0.00 | 80 | 1017.9 |
| 20260509123611 | 3 | 148 | 4.8 | 11.3 | 0.00 | 0.00 | 0.00 | 81 | 1017.9 |
| 20260509123111 | 3 | 144 | 6.4 | 11.3 | 0.00 | 0.00 | 0.00 | 80 | 1017.9 |
| 20260509122611 | 3 | 141 | 6.4 | 11.3 | 0.00 | 0.00 | 0.00 | 79 | 1018.0 |
| 20260509122111 | 3 | 132 | 6.4 | 12.9 | 0.00 | 0.00 | 0.00 | 79 | 1018.0 |
| 20260509121611 | 4 | 136 | 4.8 | 12.9 | 0.00 | 0.00 | 0.00 | 79 | 1018.1 |
| 20260509121112 | 4 | 135 | 1.6 | 8.0 | 0.00 | 0.00 | 0.00 | 80 | 1018.3 |
| 20260509120610 | 4 | 126 | 1.6 | 6.4 | 0.00 | 0.00 | 0.00 | 81 | 1018.3 |
| 20260509120112 | 4 | 128 | 3.2 | 6.4 | 0.00 | 0.00 | 0.00 | 82 | 1018.3 |
| 20260509115611 | 4 | 131 | 1.6 | 4.8 | 0.00 | 0.00 | 0.00 | 82 | 1018.3 |
| 20260509115111 | 4 | 149 | 0.0 | 3.2 | 0.00 | 0.00 | 0.00 | 83 | 1018.3 |
| 20260509114612 | 3 | 150 | 0.0 | 1.6 | 0.00 | 0.00 | 0.00 | 83 | 1018.3 |
| 20260509114111 | 3 | 150 | 0.0 | 0.0 | 0.00 | 0.00 | 0.00 | 82 | 1018.2 |
| 20260509113610 | 4 | 150 | 0.0 | 1.6 | 0.00 | 0.00 | 0.00 | 81 | 1018.3 |
| 20260509113350 | 4 | 150 | 0.0 | 1.6 | 0.00 | 0.00 | 0.00 | 80 | 1018.3 |
| 20260509112611 | 5 | 150 | 0.0 | 0.0 | 0.00 | 0.00 | 0.00 | 80 | 1018.3 |
| 20260509112120 | 5 | 150 | 0.0 | 0.0 | 0.00 | 0.00 | 0.00 | 78 | 1018.2 |
| 20260509111616 | 5 | 150 | 0.0 | 0.0 | 0.00 | 0.00 | 0.00 | 78 | 1018.3 |
| 20260509111113 | 5 | 150 | 0.0 | 0.0 | 0.00 | 0.00 | 0.00 | 78 | 1018.3 |
| 20260509110609 | 5 | 150 | 0.0 | 3.2 | 0.00 | 0.00 | 0.00 | 78 | 1018.3 |
| 20260509110331 | 5 | 150 | 0.0 | 3.2 | 0.00 | 0.00 | 0.00 | 78 | 1018.2 |
| 20260509105835 | 5 | 153 | 0.0 | 3.2 | 0.00 | 0.00 | 0.00 | 79 | 1018.2 |
| 20260509105100 | 5 | 163 | 0.0 | 1.6 | 0.00 | 0.00 | 0.00 | 79 | 1018.2 |
| 20260509104558 | 5 | 150 | 0.0 | 4.8 | 0.00 | 0.00 | 0.00 | 79 | 1018.2 |
| 20260509104059 | 5 | 150 | 1.6 | 4.8 | 0.00 | 0.00 | 0.00 | 79 | 1018.4 |
| 20260509103556 | 5 | 151 | 1.6 | 3.2 | 0.00 | 0.00 | 0.00 | 78 | 1018.3 |
| 20260509103050 | 6 | 151 | 1.6 | 3.2 | 0.00 | 0.00 | 0.00 | 77 | 1018.4 |
| 20260509102621 | 6 | 152 | 0.0 | 1.6 | 0.00 | 0.00 | 0.00 | 76 | 1018.5 |
| 20260509102602 | 6 | 151 | 1.6 | 3.2 | 0.00 | 0.00 | 0.00 | 76 | 1018.4 |
| 20260509101532 | 6 | 152 | 0.0 | 0.0 | 0.00 | 0.00 | 0.00 | 75 | 1018.5 |
| 20260509101027 | 6 | 152 | 0.0 | 1.6 | 0.00 | 0.00 | 0.00 | 76 | 1018.5 |
| 20260509100521 | 6 | 152 | 0.0 | 1.6 | 0.00 | 0.00 | 0.00 | 76 | 1018.7 |
| 20260509100014 | 6 | 152 | 0.0 | 0.0 | 0.00 | 0.00 | 0.00 | 76 | 1018.7 |
| 20260509095508 | 6 | 152 | 0.0 | 1.6 | 0.00 | 0.00 | 0.00 | 76 | 1018.7 |
| 20260509095224 | 6 | 152 | 0.0 | 1.6 | 0.00 | 0.00 | 0.00 | 76 | 1018.5 |
| 20260509095007 | 6 | 152 | 0.0 | 1.6 | 0.00 | 0.00 | 0.00 | 76 | 1018.5 |
| 20260509094459 | 6 | 152 | 0.0 | 1.6 | 0.00 | 0.00 | 0.00 | 76 | 1018.5 |
| 20260509093950 | 6 | 152 | 0.0 | 1.6 | 0.00 | 0.00 | 0.00 | 75 | 1018.7 |
| 20260509093445 | 7 | 150 | 1.6 | 3.2 | 0.00 | 0.00 | 0.00 | 75 | 1018.8 |